Kezdőlap
METAR-TAF:

METAR-TAF

Repülőterek :

Albertus Airport

Freeport, Illinois, Amerikai Egyesült Államok

földrajzi szélesség: 42-14-47N, földrajzi hosszúság: 089-34-56W, magasság: 262 m

Jelenlegi meteorológiai megfigyelések

A jelentés 29 perccel ezelõtt készült, 12:35 UTC
Szélcsend
Hőmérséklet -4°C
Páratartalom 100%
Légköri nyomás 1029 hPa
Látótávolság: 6.4 km
Borult 400 lábon
Párásság

METAR: KFEP 081235Z AUTO 00000KT 4SM BR OVC004 M04/M04 A3040 RMK AO2 T10381040

Idő: 07:04 (13:04 UTC)


TAF: hiányzik

Meteorológiai megfigyelések és előrejelzések több, mint 4000 repülőtéren (METAR és TAF jelentéseket).

A térképen piros és sárga pontok jelzik az elérhető meteorológiai állomásokat.

Mozgassa az egeret a pont fölött, hogy megjelenjen az állomás neve.

Azután kattintson az időjárási megfigyelések és előrejelzések megtekintéséhez.

A térkép megváltoztatása: kattintson a fekete keresztel jelölt zöld gombra ráközelítéshez, a vonallal jelölt zöld gombra távolításhoz, vagy a zöld nyilakra a szomszédos térképek eléréséhez.


METAR-TAF: